Location: Ladrillo (historical)
(32.8195°N, 117.2231°W)
Time: 08:12:53
(UTC+00:00)

FALCON 9 R/B - Visible Passes

Search period start: 06 October 2022 00:00
Search period end: 16 October 2022 00:00
Orbit: 297 x 9951 km, 34.5° (Epoch: 06 October)

Date Brightness Start Highest point End Pass type
(mag) Time Alt. Az. Time Alt. Az. Time Alt. Az.
06 Oct 5.2 04:01:35 10° SW 04:49:08 56° SSE 04:49:08 56° SSE visible
07 Oct 5.2 03:50:56 10° SW 04:41:08 57° SSE 04:41:43 57° SSE visible
07 Oct 6.6 08:06:01 10° W 08:06:23 10° W 08:06:23 10° W visible
08 Oct 5.1 03:40:14 10° SW 04:32:34 58° SSE 04:34:15 58° SE visible
08 Oct 6.5 07:56:48 10° W 07:58:54 13° W 07:58:54 13° W visible
09 Oct 5.1 03:29:28 10° SW 04:23:55 59° SSE 04:26:42 57° SE visible
09 Oct 6.5 07:47:27 10° W 07:51:22 15° W 07:51:22 15° W visible
10 Oct 5.1 03:18:39 10° SW 04:15:12 60° SSE 04:19:07 56° ESE visible
10 Oct 6.4 07:38:00 10° W 07:43:45 18° W 07:43:45 18° W visible
11 Oct 5.1 03:07:48 10° SW 04:06:24 61° SSE 04:11:27 54° ESE visible
11 Oct 6.3 07:28:24 10° W 07:36:05 20° W 07:36:05 20° W visible
12 Oct 5.1 02:56:55 10° SW 03:57:31 62° SSE 04:03:44 51° ESE visible
12 Oct 6.2 07:18:41 10° W 07:28:21 23° W 07:28:21 23° W visible
13 Oct 5.2 02:46:00 10° SW 03:48:32 63° SSE 03:55:58 48° ESE visible
13 Oct 6.1 07:08:50 10° W 07:20:34 26° W 07:20:34 26° W visible
14 Oct 5.2 02:35:04 10° SW 03:39:28 64° SSE 03:48:07 46° E visible
14 Oct 6.0 06:58:50 10° W 07:12:43 29° W 07:12:43 29° W visible
15 Oct 5.2 02:24:08 10° SW 03:30:19 64° SSE 03:40:13 43° E visible
15 Oct 5.9 06:48:42 10° W 07:04:48 32° W 07:04:48 32° W visible
